Dauntless Aviation
Airports Europe France
LFIY

St Jean d'Angély Airport

Moulins, FRANCE

Airport Info
Suggest Updated Information for this Airport

Location

Latitude / Longitude: 45°57'59"N / 0°31'31"W
  45°57.984'N / 0°31.518'W
  45.9664 / -0.5253

Runway Information

Runway 10 /28

Dimensions: 2789 x 164 ft.
Surface: U
 
Runway 10
Runway 28
Latitude: 45.966636 45.965728
Longitude: -0.528086 -0.518369
Elevation: 243 ft. 243 ft.
Runway true heading: 95.7 275.7
 

Instrument Procedures

IAPs (Instrument Approach Procedures)

  Visual Approach Chart
Satellite photo at:
Airport distance calculator
From:
Weather Reports

METAR

LFBG
20.0nm SE
LFBG 210430Z AUTO 10003KT CAVOK 11/08 Q1014
LFBH
31.0nm W
LFBH 210430Z AUTO VRB02KT CAVOK 13/10 Q1014 NOSIG
LFBU
34.5nm E
LFBU 210430Z AUTO VRB01KT CAVOK 12/09 Q1015

TAF

LFBG
20.0nm SE
TAF LFBG 202000Z 2021/2121 30006KT CAVOK
LFBH
31.0nm W
TAF LFBH 202300Z 2100/2124 28006KT CAVOK TEMPO 2100/2110 BKN033 TEMPO 2114/2124 23015G25KT
LFBU
34.5nm E
TAF LFBU 201700Z 2018/2118 27010KT CAVOK BECMG 2023/2101 VRB02KT BECMG 2103/2106 BKN035 BECMG 2109/2112 23008KT
Safelog

 

Dauntless Aviation

© 2007-2017 Dauntless Aviation, all rights reserved
Information provided via PilotNav comes from a variety of official and unofficial data sources. As errors are possible, do not use PilotNav for primary flight planning purposes. Verify any information that you receive via PilotNav with current and canonical charts and other official documents. The material in this database is subject to database copyrights held by Dauntless Aviation and may not be copied without the express permission of Dauntless Aviation - licenses for use of part of all of this data are available for purchase; enquire via the Dauntless Aviation helpdesk. A number of mechanisms and markers exist in the database to protect against and identify infringement / copyright. Automated queries against this website are stictly prohibited, and all activity is logged and analyzed.